Regional Weather Roundup
Issued by NWS

Home | Current Version | Previous Version | Text Only | Print | Product List | Glossary Off
Versions: 1 2 3 4 5 6 7 8 9 10 11 12 13 14 15 16 17 18 19 20 21 22 23 24 25 26 27 28 29 30 31 32 33 34 35 36 37 38 39 40 41 42 43 44 45 46 47 48 49 50

348
ASUS43 KOAX 221202
RWRNE

WEATHER ROUNDUP FOR NEBRASKA
NATIONAL WEATHER SERVICE OMAHA NE
700 AM CDT TUE AUG 22 2017

NOTES: SATELLITE DATA IS BEING USED TO AUGMENT CLOUD COVER ABOVE
       12000 FEET.
       "FAIR" INDICATES FEW OR NO CLOUDS BELOW 12,000 FEET WITH NO
       SIGNIFICANT WEATHER AND/OR OBSTRUCTIONS TO VISIBILITY.


NEZ001>004-019>022-054>056-221300-
NEBRASKA PANHANDLE

CITY           SKY/WX    TMP DP  RH WIND       PRES   REMARKS
SCOTTSBLUFF    CLEAR     52  46  80 E5        30.28R
6HR MIN TEMP:  51; 6HR MAX TEMP:  62;

ALLIANCE       CLEAR     42  40  92 W6        30.28R
6HR MIN TEMP:  42; 6HR MAX TEMP:  54;

CHADRON        CLEAR     44  41  89 S3        30.25R
6HR MIN TEMP:  44; 6HR MAX TEMP:  52;

GORDON         FAIR      42  39  91 CALM      30.25S
6HR MIN TEMP:  41; 6HR MAX TEMP:  53;

KIMBALL        MOCLDY    53  53  99 S5        30.33R
SIDNEY         CLEAR     46  44  93 CALM      30.30S
6HR MIN TEMP:  46; 6HR MAX TEMP:  61;

$$

NEZ057>060-069>072-079>082-221300-
SOUTHWEST NEBRASKA

CITY           SKY/WX    TMP DP  RH WIND       PRES   REMARKS
NORTH PLATTE   CLEAR     51  50  96 CALM      30.23R
6HR MIN TEMP:  50; 6HR MAX TEMP:  64;

IMPERIAL       CLEAR     54  52  93 N6        30.25R
6HR MIN TEMP:  54; 6HR MAX TEMP:  63;

LEXINGTON      CLEAR     58  53  83 NE6       30.21R
MCCOOK         CLEAR     60  59  96 NE12      30.19R
6HR MIN TEMP:  60; 6HR MAX TEMP:  70;

OGALLALA       CLEAR     53  51  92 CALM      30.26S
$$

NEZ005>010-023>029-035>040-094-221300-
NORTH CENTRAL NEBRASKA

CITY           SKY/WX    TMP DP  RH WIND       PRES   REMARKS
VALENTINE      CLEAR     49  44  83 NW5       30.23R
6HR MIN TEMP:  49; 6HR MAX TEMP:  63;

AINSWORTH      CLEAR     50  48  94 NW5       30.23R
BROKEN BOW     CLEAR     54  51  90 N3        30.20R
6HR MIN TEMP:  54; 6HR MAX TEMP:  65;

O`NEILL        CLEAR     53  51  94 NW5       30.19R
ORD            CLEAR     54  50  86 NW5       30.18R
6HR MIN TEMP:  54; 6HR MAX TEMP:  62;

THEDFORD       CLEAR     48  47  95 CALM      30.25R
$$

NEZ041-046>049-061>064-073>077-083>087-221300-
SOUTH CENTRAL NEBRASKA

CITY           SKY/WX    TMP DP  RH WIND       PRES   REMARKS
GRAND ISLAND   CLEAR     58  57  97 N5        30.18R
6HR MIN TEMP:  58; 6HR MAX TEMP:  65;

AURORA         CLEAR     60  59  97 N5        30.17R
HASTINGS       CLEAR     62  58  86 N8        30.18R
6HR MIN TEMP:  62; 6HR MAX TEMP:  68;

HEBRON         MOCLDY    64  64  97 NE3       30.14R FOG
HOLDREGE       CLEAR     59  56  90 NE3       30.19R
KEARNEY        CLEAR     59  56  89 NE12      30.19R
$$

NEZ011>018-030>034-042>045-221300-
NORTHEAST NEBRASKA

CITY           SKY/WX    TMP DP  RH WIND       PRES   REMARKS
NORFOLK        CLEAR     56  54  93 NW3       30.14R
6HR MIN TEMP:  56; 6HR MAX TEMP:  64;

ALBION         CLEAR     56  54  94 N3        30.18R
BLAIR          RAIN      62  62  98 N9        30.11R
COLUMBUS       CLEAR     58  56  93 N3        30.16R
FREMONT        CLEAR     60  59  96 CALM      30.13R
TEKAMAH        CLEAR     60  58  92 N6        30.11R
6HR MIN TEMP:  60; 6HR MAX TEMP:  64;

WAYNE          CLEAR     55  53  91 CALM      30.14R
$$

NEZ050>053-065>068-078-088>093-221300-
SOUTHEAST NEBRASKA

CITY           SKY/WX    TMP DP  RH WIND       PRES   REMARKS
LINCOLN        CLEAR     64  62  93 N6        30.13R
6HR MIN TEMP:  61; 6HR MAX TEMP:  68;

OMAHA EPPLEY   CLOUDY    64  61  90 N8        30.10R
6HR MIN TEMP:  64; 6HR MAX TEMP:  67;

BEATRICE       CLOUDY    65  64  98 N3        30.12R FOG
FALLS CITY     CLOUDY    64  63  96 NW5       30.08R
6HR MIN TEMP:  64; 6HR MAX TEMP:  66; 6HR PCP:  0.07;

NEBRASKA CITY  FOG       64  64 100 NW6       30.10R VSB 3/4
PLATTSMOUTH    CLOUDY    65  64  97 W5        30.11R FOG
$$

NEZ044-045-051>053-067-221300-
OMAHA AREA

CITY           SKY/WX    TMP DP  RH WIND       PRES   REMARKS
OMAHA EPPLEY   CLOUDY    64  61  90 N8        30.10R
6HR MIN TEMP:  64; 6HR MAX TEMP:  67;

BLAIR          RAIN      62  62  98 N9        30.11R
FREMONT        CLEAR     60  59  96 CALM      30.13R
MILLARD        CLEAR     64  63  96 NW3       30.11R
OFFUTT AFB     CLOUDY    65  63  95 NW6       30.10R
PLATTSMOUTH    CLOUDY    65  64  97 W5        30.11R FOG
WAHOO          FAIR      61  61  98 N7        30.13R
$$




USA.gov is the U.S. government's official web portal to all federal, state and local government web resources and services.